sat.trackr.live / text

‹ back to catalog

ONEWEB-0232

NORAD 48781 · 2021-045Q

PAYLOAD ACTIVE UNKNOWN

§ Identity

Operator
Country
UK
Launch date
2021-05-28
Launch site
VOSTO
Launch vehicle
Mass (kg)
RCS (m²)

Purposes: comms

External: N2YO · Heavens-Above · Gunter

§ Orbital elements

Epoch: 2026-09-08T10:17:01.899744Z

Period
109.46 min
Inclination
87.8976°
Eccentricity
0.0001948
Mean motion
13.15547307 rev/d
Perigee alt
1,200.3 km
Apogee alt
1,203.3 km
Semi-major
7,579.9 km
B*
4.4181e-4
RAAN
242.5936°
Arg perigee
85.2592°
Mean anomaly
274.8761°
Rev number
25,559

§ Raw data

ONEWEB-02321 48781U 21045Q   26251.42849421  .00000179  00000+0  44181-3 0  99972 48781  87.8976 242.5936 0001948  85.2592 274.8761 13.15547307255596

JSON: /api/v1/satellites/48781 · /tle

For live sub-satellite position, see the globe view (requires WebGL).

§ Visibility from observer

Set your observer location to see the next 7 days of passes ≥ 10°. The values pass through the URL so the page stays shareable.

No JS? Fill the form by hand. The geolocation button needs JavaScript.